Showing default

COSMOS 2538, 44424

Orbit data source: Space-Track

COSMOS 2538, 44424 is a payload satellite owned by TsNIIKhM (CIS) in SSO that was launched on Wed, 10 Jul 2019 UTC via a SOYUZ-2-1V launch vehicle from the Plesetsk Missile And Space Complex (PKMTR). Payload-class satellites include a variety of spacecraft equipped with specific instruments for various scientific and technological missions. These include communications satellites like Starlink; space stations such as the ISS; scientific satellites like the Hubble; Earth observation satellites from companies like Planet Labs, Umbra, and HawkEye 360; GPS; miniature CubeSats for education and research; and military/defense satellites.

Loading next visibility...
Identifier
44424, 2019-039D
Orbit
SSO
Country
Flag of CISCIS
Related business
Manufacturer
TsNIIKhM
Mission
Operational Defense Technology
Bus & Motor
NIVELIR, Unknown motor
Mass
~100 kg wet, ~100 kg dry
Launch date (UTC)
2019-07-10 (7 years ago)
Launch vehicle
SOYUZ-2-1V
Launch site
Plesetsk Missile And Space Complex (PKMTR)
Object type
Payload
Rocket body
Debris
Shape & HBR
Hex Cyl + 1 Ant, 0.4 m
Radar Cross Section
0.503 m², Medium (>0.1 m² and < 1m²)

Expand to show TLE details & history
Last TLE update: 5 hours ago

TLE from 5 hours ago
0 COSMOS 2538
1 44424U 19039D   26074.63696631  .00006156  00000-0  28526-3 0  9993
2 44424  97.5930 153.4473 0043157  12.3307 347.8973 15.19621010365692
Epoch: 2026-03-15T15:17Z
TLE epoch observation values (Epoch: 2026-03-15T15:17:13.889Z)
Latitude
0.00001°
Longitude
110.89849°
Altitude
481.015 km
Speed
7.641 km/s
True Right ascension
10h 13m 47s
True Declination
0° 00' 00"
Sunlit
Object was in full shadow at epoch
Visualization orbit readout
Latitude
Unknown
Longitude
Unknown
Altitude
Unknown
Speed
Unknown
Apparent Right ascension
Unknown
Apparent Declination
Unknown
Sunlit
N/A
Visualization observer readout
Local Sidereal Time
01:15:43
Azimuth
Unknown
Elevation
Unknown
Doppler factor
Unknown
Orbital elements
Apogee altitude
533.661 km
Perigee altitude
474.258 km
Semi-major axis
6,882.096 km
Eccentricity
0.00432
Inclination
97.593°
RAAN
153.4473°
Arg. of periapsis
12.3307°
True anomaly
347.79306°
Mean anomaly
347.8973°
Eccentric anomaly
347.84524°
Mean motion
3.80156 °/min
Orbital period
94.7 mins
BSTAR
0.00028526
Loading maneuver chart data...
Computing Atmospheric mass density...

Documentation

Showing up to 5 results
|